User: anonymous   Login
Location: Caltech
(34.1382°N, 118.1253°W)
Time: 03:28:41
(UTC-07:00)
Language:

Cosmos 2237 Rocket - Orbit

View from above orbital plane
View from above orbital plane
View from above satellite
View from above satellite

Ground track
Ground track

The orbit data is extracted from the following two-line orbital elements,

1 22566U 93016B   15216.00062582 -.00000282  00000-0 -12151-3 0  9995
2 22566 071.0075 060.9227 0007986 093.1234 267.0803 14.14907371154633
Epoch (UTC): 04 August 2015 00:00:54
Eccentricity: 0.0007986
inclination: 71.0075°
perigee height: 837 km
apogee height: 848 km
right ascension of ascending node: 60.9227°
argument of perigee: 93.1234°
revolutions per day: 14.14907371
mean anomaly at epoch: 267.0803°
orbit number at epoch: 15463

The dashed part of the orbit path shows where the satellite is in the earth's shadow,  

DLR